Location: Strohbehn Observatory
(42.4649°N, 93.8239°W)
Time: 14:06:08
(UTC-06:00)

SL-16 R/B - Visible Passes

Search period start: 24 November 2014 00:00
Search period end: 04 December 2014 00:00
Orbit: 843 x 846 km, 71.0° (Epoch: 23 November)

Date Brightness Start Highest point End Pass type
(mag) Time Alt. Az. Time Alt. Az. Time Alt. Az.
24 Nov 2.8 18:58:56 10° NNW 19:03:05 40° NNE 19:03:05 40° NNE visible
24 Nov 4.7 20:43:43 10° NW 20:45:00 15° WNW 20:45:00 15° WNW visible
25 Nov 2.4 18:44:47 10° NNW 18:50:09 47° ENE 18:50:09 47° ENE visible
25 Nov 4.4 20:29:29 10° NW 20:32:06 21° WNW 20:32:06 21° WNW visible
26 Nov 2.4 18:30:37 10° NNW 18:36:04 45° ENE 18:37:36 37° E visible
26 Nov 4.0 20:15:15 10° NW 20:19:35 26° W 20:19:35 26° W visible
27 Nov 2.5 18:16:27 10° NNW 18:21:53 44° ENE 18:25:43 18° SE visible
27 Nov 4.0 20:01:01 10° NW 20:05:44 28° WSW 20:07:47 22° SW visible
28 Nov 2.5 18:02:18 10° NNW 18:07:41 43° ENE 18:13:02 10° SE visible
28 Nov 4.0 19:46:48 10° NW 19:51:34 29° WSW 19:56:20 10° SSW visible
29 Nov 2.6 17:48:08 10° NNW 17:53:30 41° ENE 17:58:49 10° SE visible
29 Nov 4.0 19:32:35 10° NW 19:37:25 30° WSW 19:42:14 10° SSW visible
30 Nov 2.6 17:33:59 10° NNW 17:39:18 40° ENE 17:44:35 10° SE visible
30 Nov 3.9 19:18:21 10° NW 19:23:15 31° WSW 19:28:07 10° SSW visible
01 Dec 2.7 17:19:49 10° N 17:25:06 39° ENE 17:30:21 10° SE visible
01 Dec 3.9 19:04:08 10° NW 19:09:05 32° WSW 19:14:01 10° SSW visible
02 Dec 2.7 17:05:39 10° N 17:10:55 37° ENE 17:16:08 10° SE visible
02 Dec 3.9 18:49:55 10° NW 18:54:55 33° WSW 18:59:54 10° SSW visible
03 Dec 3.9 18:35:42 10° NW 18:40:46 34° WSW 18:45:48 10° SSW visible
